{"data":{"norad_id":66634,"intl_designator":"2025-271T","name":"STARLINK-35967","alt_names":[],"object_type":"PAYLOAD","status":"ACTIVE","operator":null,"country":"US","launch_date":"2025-11-23","launch_site_code":"AFWTR","launch_vehicle":null,"mission":null,"orbit_class":"UNKNOWN","rcs_meters":null,"size_class":null,"mass_kg":null,"dimensions":null,"purposes":["comms"],"wikipedia_slug":null,"has_3d_model":false,"image_url":null,"decayed_at":null,"tle_current":{"epoch":"2026-09-20T10:02:02.939712Z","epoch_age_seconds":93992,"freshness":"FRESH","line1":"1 66634U 25271T   26263.41808958  .00002909  00000+0  97214-4 0  9990","line2":"2 66634  53.1555 310.2487 0001467  86.3379 273.7791 15.34394647 47407","mean_motion":15.34394647,"eccentricity":0.0001467,"inclination_deg":53.1555,"raan_deg":310.2487,"arg_perigee_deg":86.3379,"mean_anomaly_deg":273.7791,"bstar":9.7214e-5,"rev_number":4740,"period_min":93.848085485403,"perigee_km":461.71559690017,"apogee_km":463.72270409473,"semimajor_km":6840.8561504975,"source":"CELESTRAK","updated_at":"2026-09-21T09:00:35.985547Z"}}}